{"data":{"norad_id":53563,"epoch":"2026-09-20T13:38:23.320608Z","epoch_age_seconds":72279,"freshness":"FRESH","line1":"1 53563U 22101AN  26263.56832547  .00001163  00000+0  45541-4 0  9990","line2":"2 53563  53.1586 243.2927 0001242  88.4644 271.6501 15.34396946226084","mean_motion":15.34396946,"eccentricity":0.0001242,"inclination_deg":53.1586,"raan_deg":243.2927,"arg_perigee_deg":88.4644,"mean_anomaly_deg":271.6501,"bstar":4.5541e-5,"rev_number":22608,"period_min":93.847944872017,"perigee_km":461.86268386855,"apogee_km":463.56195083898,"semimajor_km":6840.8493173538,"source":"CELESTRAK","updated_at":"2026-09-21T09:00:32.928381Z"}}